Regional Weather Roundup
Issued by NWS Columbia, SC

Home | Current Version | Previous Version | Text Only | Print | Product List | Glossary On
Versions: 1 2 3 4 5 6 7 8 9 10 11 12 13 14 15 16 17 18 19 20 21 22 23 24 25 26 27 28
000
ASUS42 KCAE 200210
RWRCAE
REGIONAL WEATHER ROUNDUP
NATIONAL WEATHER SERVICE COLUMBIA SC
1000 PM EDT TUE SEP 19 2017

NOTE: "FAIR" INDICATES FEW OR NO CLOUDS BELOW 12,000 FEET WITH NO
SIGNIFICANT WEATHER AND/OR OBSTRUCTIONS TO VISIBILITY.

NOT ALL STATIONS ARE QUALITY CONTROLLED BY THE NATIONAL
WEATHER SERVICE. USE DATA WITH CAUTION...ESPECIALLY
DEWPOINT OBSERVATIONS.

SCZ001>056-GAZ040-063>065-077-200300-
...UPSTATE SOUTH CAROLINA...

CITY           SKY/WX    TMP DP  RH WIND       PRES   REMARKS
ANDERSON       PTCLDY    74  69  85 CALM      29.97S
LIBERTY        PTCLDY    73  69  88 CALM      29.98R
SPARTANBURG    PTCLDY    70  66  88 CALM      29.98R
CLEMSON        PTCLDY    78  71  79 CALM      29.99R
GREENVILLE     PTCLDY    78  66  66 CALM      30.00R
GREENWOOD      PTCLDY    72  70  93 CALM      29.99S
GREER          PTCLDY    73  69  87 S3        29.98S
ROCK HILL        N/A    N/A N/A N/A MISG      29.99R
CHESTER        CLEAR     70  66  88 CALM      29.99S
LAURENS        PTCLDY    72  68  88 S3        29.98S


...CENTRAL SOUTH CAROLINA...

CITY           SKY/WX    TMP DP  RH WIND       PRES   REMARKS
COLUMBIA APT   CLEAR     76  68  76 S3        29.97R
COLUMBIA OWENS CLEAR     76  68  76 CALM      29.98R
MCENTIRE ANGB  CLEAR     70  69  95 CALM      29.98R
ORANGEBURG     CLEAR     73  70  90 CALM      29.98R
SUMTER SHAW    CLEAR     74  67  78 CALM      29.96R
NEWBERRY       CLEAR     72  68  88 S3        30.00F
AIKEN          FAIR      70  66  88 CALM      30.01F
BARNWELL       FAIR      75  72  88 CALM      29.98S
MANNING        FAIR      70  63  78 CALM      29.98R
CAMDEN         FAIR      72  68  88 CALM      29.98R
LANCASTER      CLEAR     72  72 100 CALM      29.98S
WINNSBORO      CLEAR     73  68  83 S5        29.98S


...EASTERN AND COASTAL SOUTH CAROLINA...

CITY           SKY/WX    TMP DP  RH WIND       PRES   REMARKS
MYRTLE BEACH   CLEAR     72  68  87 CALM      29.97S
N MYRTLE BCH   CLEAR     72  70  93 CALM      29.96R
CONWAY         FAIR      68  68 100 CALM      29.96S
MARION         FAIR      70  66  88 CALM      29.96S
HARTSVILLE     FAIR      66  64  94 CALM      29.97S
FLORENCE       CLEAR     72  69  90 CALM      29.97R
DARLINGTON     CLEAR     70  67  90 CALM      29.97S
CHARLESTON APT CLEAR     75  72  90 SW6       29.98R
MOUNT PLEASANT FAIR      73  72  94 CALM      29.98S
WALTERBORO     CLEAR     73  70  88 CALM      29.99R
BEAUFORT       CLEAR     79  75  87 S3        29.98S


...EASTERN GEORGIA...

CITY           SKY/WX    TMP DP  RH WIND       PRES   REMARKS
AUGUSTA BUSH F CLEAR     73  71  93 CALM      29.95F
AUGUSTA DANIEL CLEAR     81  69  67 E5        29.98S
THOMSON        CLEAR     72  70  94 CALM      30.02S
WASHINGTON     FAIR     N/A N/A N/A CALM      29.98S
CLAXTON        FAIR      75  73  94 CALM      29.97S
SYLVANIA       CLEAR     74  73  96 CALM      29.99S
STATESBORO     CLEAR     74  71  91 CALM      29.97S
SAVANNAH       CLEAR     77  71  82 S6        29.98R


...SOUTHERN NORTH CAROLINA...

CITY           SKY/WX    TMP DP  RH WIND       PRES   REMARKS
CHARLOTTE      PTCLDY    74  68  81 SW5       29.98S
MONROE         CLEAR     69  67  93 CALM      29.98R
WADESBORO      CLEAR     68  64  86 CALM      29.96S
RUTHERFORDTON  CLEAR     71  71 100 CALM      30.00R
ASHEVILLE      PTCLDY    68  64  87 CALM      30.06R

$$




USA.gov is the U.S. government's official web portal to all federal, state and local government web resources and services.